{"data":{"norad_id":52831,"epoch":"2026-09-19T21:52:19.498656Z","epoch_age_seconds":117261,"freshness":"FRESH","line1":"1 52831U 22062B   26262.91133679  .00000227  00000+0  19078-4 0  9997","line2":"2 52831  53.1583 231.6083 0001071  66.6404 293.4710 15.31697351235247","mean_motion":15.31697351,"eccentricity":0.0001071,"inclination_deg":53.1583,"raan_deg":231.6083,"arg_perigee_deg":66.6404,"mean_anomaly_deg":293.471,"bstar":1.9078e-5,"rev_number":23524,"period_min":94.013350552566,"perigee_km":470.01437619628,"apogee_km":471.48140734009,"semimajor_km":6848.8848917682,"source":"CELESTRAK","updated_at":"2026-09-20T09:00:40.110665Z"}}